This is the latest recevied weather packets stored in our database for station/object OK1VCF-6. If no packets are shown the sender has not sent any weather packets the latest 10 day(s).
| Time | Temp. | Humidity | Pressure | Rain* | Wind** | Luminosity | Snow |
|---|---|---|---|---|---|---|---|
| 1777708345 | 14.44° C | 54% | 1026.6 hPa | - | - | - | - |
| 1777696623 | 7.22° C | 81% | 1026.6 hPa | - | - | - | - |
| 1777693919 | 7.22° C | 80% | 1026.6 hPa | - | - | - | - |
| 1777673187 | 7.78° C | 74% | 1027.8 hPa | - | - | - | - |
| 1777673132 | 7.78° C | 74% | 1027.8 hPa | - | - | - | - |
| 1777670418 | 7.78° C | 75% | 1027.8 hPa | - | - | - | - |
| 1777665914 | 8.89° C | 71% | 1027.8 hPa | - | - | - | - |
| 1777646084 | 17.78° C | 44% | 1027.8 hPa | - | - | - | - |
| 1777639033 | 17.78° C | 52% | 1028.7 hPa | - | - | - | - |
| 1777638855 | 17.78° C | 52% | 1028.7 hPa | - | - | - | - |
| 1777635236 | 17.22° C | 47% | 1029 hPa | - | - | - | - |
| 1777631625 | 16.67° C | 53% | 1029.2 hPa | - | - | - | - |
| 1777628925 | 15.56° C | 54% | 1029.4 hPa | - | - | - | - |
| 1777628923 | 15.56° C | 54% | 1029.4 hPa | - | - | - | - |
| 1777628025 | 15° C | 49% | 1029.5 hPa | - | - | - | - |
| 1777623494 | 12.78° C | 56% | 1029.6 hPa | - | - | - | - |
| 1777619856 | 10.56° C | 60% | 1029.6 hPa | - | - | - | - |
| 1777617130 | 8.89° C | 72% | 1029.6 hPa | - | - | - | - |
| 1777609898 | 4.44° C | 86% | 1029.6 hPa | - | - | - | - |
| 1777608097 | 4.44° C | 86% | 1029.6 hPa | - | - | - | - |
| 1777606301 | 5° C | 84% | 1029.6 hPa | - | - | - | - |
| 1777600948 | 5° C | 86% | 1029.4 hPa | - | - | - | - |
| 1777567457 | 13.33° C | 47% | 1029 hPa | - | - | - | - |
| 1777561145 | 12.22° C | 50% | 1029.6 hPa | - | - | - | - |
| 1777552079 | 12.22° C | 48% | 1030.3 hPa | - | - | - | - |
* Rain since midnight (hover to see other rain measurements)
** Current wind speed in m/s (hover to see current wind gust speed)